This demonstration page uses our WeatherBlox Daily Observations layout. Learn more.

Left ArrowRight Arrow

Hourly Observations for February 1, 2020

Temp ( °F °C ) Dew Point ( °F °C ) Humidity (%) Winds ( mph kmh ) Pressure ( in mb ) Visibility ( mi km ) Precip ( " mm )
12:53 am 00:53 Cloudy with Mist and Fog 36 2.2 33 0.6 89 89 N N/A 30.13 1020 6 10 N/A
1:53 am 01:53 Cloudy with Mist and Fog 36 2.2 33 0.6 89 89 NE 3 6 30.11 1020 6 10 N/A
2:53 am 02:53 Cloudy with Mist and Fog 36 2.2 33 0.6 89 89 ENE 3 6 30.10 1019 6 10 N/A
3:48 am 03:48 Cloudy with Mist and Fog 36 2 34 1 93 93 N N/A 30.10 1019 5 8 N/A
3:53 am 03:53 Cloudy with Mist and Fog 36 2.2 33 0.6 89 89 ENE 3 6 30.09 1019 5 8 N/A
4:53 am 04:53 Cloudy with Mist and Fog 36 2.2 33 0.6 89 89 ENE 5 7 30.06 1018 5 8 N/A
5:04 am 05:04 Cloudy with Mist and Fog 36 2.2 33 0.6 89 89 ENE 3 6 30.07 1018 5 8 N/A
5:53 am 05:53 Cloudy with Mist and Fog 36 2.2 33 0.6 89 89 N N/A 30.06 1018 4 6 N/A
6:53 am 06:53 Cloudy with Mist and Fog 36 2.2 33 0.6 89 89 N N/A 30.06 1018 4 6 N/A
7:10 am 07:10 Cloudy with Mist and Fog 36 2.2 33 0.6 89 89 N N/A 30.07 1018 4 6 N/A
7:22 am 07:22 Cloudy with Mist and Fog 35 1.7 33 0.6 93 93 N N/A 30.07 1018 4 6 N/A
7:53 am 07:53 Cloudy with Mist and Fog 36 2.2 33 0.6 89 89 N N/A 30.06 1018 4 6 N/A
8:53 am 08:53 Cloudy with Mist and Fog 35 1.7 33 0.6 93 93 N N/A 30.04 1017 3 5 N/A
9:00 am 09:00 Cloudy with Mist and Fog 35 1.7 33 0.6 93 93 N N/A 30.06 1018 3 4 N/A
9:53 am 09:53 Cloudy with Mist and Fog 36 2.2 33 0.6 89 89 N N/A 30.03 1017 3 4 N/A
10:35 am 10:35 Cloudy with Mist and Fog 37 2.8 34 1.1 89 89 N N/A 30.03 1017 3 5 N/A
10:53 am 10:53 Cloudy with Mist and Fog 38 3.3 34 1.1 86 86 SSW 5 7 30.01 1016 3 5 N/A
11:43 am 11:43 Cloudy with Haze 39 3.9 34 1.1 82 82 VRB 6 9 30.00 1016 6 10 N/A
11:53 am 11:53 Cloudy 39 3.9 35 1.7 86 86 N N/A 29.98 1015 7 11 N/A
12:53 pm 12:53 Cloudy 40 4.4 35 1.7 83 83 W 8 13 29.96 1015 7 11 N/A
1:11 pm 13:11 Cloudy 41 5 35 1.7 79 79 WSW 7 11 29.96 1015 7 11 N/A
1:53 pm 13:53 Cloudy 42 5.6 34 1.1 73 73 VRB 5 7 29.92 1013 9 14 N/A
2:01 pm 14:01 Cloudy 42 5.6 34 1.1 73 73 SW 6 9 29.92 1013 10 16 N/A
2:53 pm 14:53 Cloudy 41 5 35 1.7 79 79 W 9 15 29.91 1013 9 14 N/A
3:53 pm 15:53 Cloudy 41 5 36 2.2 82 82 WSW 5 7 29.90 1012 10 16 0.00 0.00
4:53 pm 16:53 Cloudy with Light Rain 41 5 36 2.2 82 82 WSW 6 9 29.88 1012 8 13 0.00 0.00
5:30 pm 17:30 Mostly Cloudy 40 4.4 35 1.7 83 83 SW 8 13 29.88 1012 10 16 0.00 0.00
5:53 pm 17:53 Sunny 39 3.9 35 1.7 86 86 SW 6 9 29.87 1011 10 16 0.00 0.00
7:37 pm 19:37 Cloudy 41 5 33 0.6 73 73 W 9 15 29.90 1013 10 16 N/A
8:34 pm 20:34 Cloudy 39 3.9 30 -1.1 70 70 W 8 13 29.91 1013 10 16 N/A
9:53 pm 21:53 Cloudy 38 3.3 30 -1.1 73 73 W 10 17 29.92 1013 10 16 N/A
10:15 pm 22:15 Cloudy 38 3.3 30 -1.1 73 73 W 14 22 29.93 1013 10 16 N/A
10:53 pm 22:53 Cloudy 38 3.3 30 -1.1 73 73 W 10 17 29.92 1013 10 16 N/A
11:53 pm 23:53 Cloudy 38 3.3 28 -2.2 68 68 W 14 22 29.91 1013 10 16 N/A

Powered by AerisWeather